Dewpoint
75 73 73 71 71 71 70 70 58 53 52 47 45 44 45 48 48 48 49 51 49 52 52 53 53 54 53 55 58 60 61 59 58 56 54 66 69 69 69 68 69 72 72 73 73 73 74 74 75 75 74 73 74 74 75 76 76 76 76 75 76 76 76 75 76 76 76 75 75 75 76 77 77 77 77 77 77 76 76 76 77 76 76 77 76 76 75 75 76 76 76 76 75 76 76 76 77
69 72 72 71 70 71 66 68 56 45 45 43 46 47 46 47 47 47 47 48 49 53 55 56 57 57 57 57 57 58 60 60 61 61 64 66 66 68 69 69 69 70 70 71 73 73 73 75 74 74 75 75 75 75 75 76 76 76 76 76 77 77 76 75 76 76 76 75 75 75 76 76 76 77 77 77 77 76 76 76 76 76 76 75 75 75 76 76 76 76 76 76 77 76 75 76 77
69 72 70 70 69 68 66 62 44 40 41 39 44 47 49 46 46 48 49 50 51 54 55 56 56 56 56 56 55 56 58 61 61 62 64 67 66 68 68 70 70 70 71 71 72 73 74 74 74 74 75 74 75 76 76 75 76 76 77 77 77 77 76 76 76 76 76 75 75 76 76 76 76 76 76 76 76 76 76 76 76 76 76 76 76 76 76 76 76 75 76 76 76 77 76 76 75
70 71 69 69 68 69 62 50 43 38 39 40 43 48 48 48 49 50 52 52 53 53 53 52 53 57 53 52 57 59 58 59 61 62 63 65 66 68 68 69 72 70 70 71 71 72 74 74 75 74 74 74 75 75 75 75 75 75 76 76 76 77 77 77 76 76 76 75 75 75 75 75 76 76 76 76 76 76 76 76 76 76 75 76 76 76 76 76 76 75 75 76 77 76 76 76 76
68 69 68 68 67 61 58 43 39 35 35 38 40 48 49 50 50 51 53 53 53 52 53 54 56 58 58 56 58 55 59 62 61 62 63 66 67 68 69 70 70 70 71 71 70 72 73 75 75 74 74 75 74 74 76 76 75 75 75 76 76 76 76 76 76 76 75 75 75 74 74 75 75 76 76 76 76 76 76 75 75 76 76 76 75 75 75 75 75 76 76 76 76 76 76 76 76
66 66 68 68 64 60 54 39 33 32 39 39 41 46 48 50 52 53 54 54 53 52 51 52 52 53 55 59 59 59 62 59 62 62 64 65 66 67 70 70 68 69 71 71 72 74 74 75 75 76 76 75 75 76 76 76 76 76 76 75 76 76 75 76 75 75 75 75 74 74 75 75 76 76 76 75 75 76 75 75 75 75 75 75 75 75 75 74 75 75 75 76 75 75 75 75 75
65 67 67 68 66 63 41 34 33 31 38 40 40 45 47 49 51 53 54 54 54 53 53 53 54 54 53 59 60 61 63 63 63 63 64 66 67 68 68 67 68 69 70 71 72 73 73 75 75 76 76 76 75 77 77 77 76 76 76 76 76 76 75 75 75 75 75 75 74 74 75 76 75 75 75 76 76 76 75 75 75 75 75 75 75 75 75 75 75 75 74 74 75 74 75 75 75
68 66 64 62 49 47 36 33 35 35 38 43 44 45 48 50 52 52 52 52 52 51 52 53 53 54 55 58 57 62 63 65 65 66 65 67 67 68 68 67 68 68 68 71 73 74 77 75 75 76 76 76 77 77 77 77 76 76 76 75 75 75 75 75 75 74 75 75 75 75 75 75 75 75 76 76 76 76 76 75 75 74 74 74 74 74 75 75 74 74 74 74 74 73 74 74 74
65 65 60 58 43 38 34 33 35 39 42 43 46 49 55 51 52 51 51 52 52 52 51 52 54 52 56 57 58 62 64 66 66 67 66 66 67 67 67 66 66 67 68 69 71 73 75 75 75 76 76 76 76 77 77 76 76 76 76 76 75 75 75 75 75 75 75 75 74 74 74 74 75 75 75 75 76 76 75 75 75 74 73 73 74 74 75 75 74 74 73 74 74 75 74 74 74
65 64 57 50 43 37 34 35 35 39 41 44 45 48 50 51 51 52 51 51 51 51 50 52 53 52 56 56 59 60 63 66 65 65 66 66 68 68 66 66 66 66 66 68 71 72 74 76 75 75 76 76 76 76 76 76 75 75 76 76 76 75 75 75 74 74 74 74 74 74 75 75 75 76 75 75 75 75 75 76 75 73 73 73 73 74 74 74 74 74 73 74 74 75 74 74 74
61 58 55 49 40 38 35 31 37 39 41 45 45 49 50 50 50 50 50 51 51 50 51 52 54 54 55 57 60 64 65 64 64 64 66 67 68 68 66 68 66 66 67 68 70 73 74 76 76 76 76 77 76 76 76 76 75 75 76 76 75 75 75 74 74 74 74 74 74 75 75 75 76 76 75 75 75 75 75 75 75 75 74 73 74 74 74 74 74 74 74 74 74 74 74 74 74
57 56 54 41 38 38 36 34 37 37 43 43 43 48 49 50 49 49 50 50 51 50 49 53 54 56 55 57 60 64 64 64 64 65 66 67 66 65 67 66 66 66 67 68 71 72 75 76 77 77 76 77 76 77 77 76 76 76 76 75 75 75 75 74 74 74 74 74 75 75 76 76 76 76 75 75 75 75 75 75 75 75 74 74 73 73 74 74 74 74 74 74 75 74 74 74 74
58 48 46 39 37 36 38 38 37 40 40 43 42 48 48 49 47 47 49 50 51 48 47 52 55 55 54 56 61 62 63 64 65 66 66 66 66 66 66 66 67 67 68 70 70 73 74 75 74 76 76 77 77 77 77 77 76 76 75 75 75 75 75 75 75 75 75 76 76 76 76 76 76 76 75 75 75 75 75 75 75 75 75 74 74 74 74 74 74 74 75 75 74 74 74 74 74
55 49 45 44 40 36 38 38 41 37 37 40 44 49 50 47 46 48 47 49 49 46 49 55 54 54 57 59 60 60 61 64 65 66 66 67 67 66 66 66 67 69 70 71 73 73 73 73 73 75 77 78 77 77 76 76 76 76 76 76 75 76 76 76 76 76 76 76 76 76 76 76 75 75 75 75 75 75 74 74 74 74 74 75 75 75 75 75 74 74 75 75 75 75 74 74 75
55 50 46 44 39 37 39 40 38 37 35 41 48 50 50 50 48 48 47 46 48 52 53 54 54 55 54 56 58 59 61 64 65 66 67 68 68 68 68 67 69 70 70 69 71 72 73 72 72 76 77 77 76 75 76 77 75 76 76 76 76 76 76 76 76 76 76 76 76 75 75 75 74 75 76 76 75 74 75 74 74 74 74 74 74 76 76 75 75 74 74 74 75 75 74 74 75
56 49 46 44 39 37 37 40 39 38 37 44 49 49 50 50 50 48 48 48 54 53 52 52 57 52 54 55 58 59 62 65 66 67 68 68 69 69 68 69 69 70 71 71 71 72 72 74 74 73 74 75 75 74 77 77 76 76 77 77 77 77 76 76 76 76 76 75 75 75 75 75 75 75 76 75 75 74 75 75 74 74 75 74 73 74 75 75 75 75 74 75 75 75 75 75 75
56 52 46 42 40 37 37 39 40 38 39 46 49 50 49 49 51 52 55 54 52 51 50 54 54 57 54 56 59 61 63 66 67 66 67 69 68 67 67 68 68 69 70 72 72 72 72 74 73 73 75 75 73 74 74 76 76 76 76 76 76 77 77 77 77 77 76 76 75 74 75 76 77 77 76 75 75 76 75 75 74 74 75 74 74 75 74 74 75 75 75 75 75 74 75 75 74
54 49 44 42 38 37 37 38 40 40 40 48 49 50 49 49 51 55 54 51 49 50 52 52 56 55 57 59 61 62 63 65 65 65 66 67 67 65 65 67 67 67 69 70 72 71 71 74 72 73 75 75 75 76 75 76 76 75 76 76 76 77 77 77 77 75 74 76 74 75 76 75 76 77 77 73 74 75 76 75 75 74 74 75 75 75 74 75 75 73 74 74 74 75 75 74 74
51 46 43 39 38 37 39 38 41 40 40 48 49 49 48 49 49 52 49 49 49 50 52 51 54 57 60 61 62 63 63 64 64 63 65 66 64 65 65 67 67 66 67 68 70 71 71 72 75 74 74 77 77 76 74 76 75 77 78 76 76 75 75 76 74 75 75 76 77 76 76 75 76 77 76 76 76 74 76 75 76 75 76 76 75 75 76 75 74 71 71 71 73 74 76 73 73
47 45 42 39 39 40 40 39 40 41 42 47 48 49 48 49 50 50 47 49 50 50 52 53 52 58 59 61 62 63 64 63 64 62 62 66 65 64 66 66 66 67 67 67 68 70 71 71 73 74 75 74 74 74 75 75 76 76 75 75 76 75 76 74 76 76 76 76 76 76 74 76 76 77 74 76 76 76 76 77 77 76 76 76 74 74 76 75 72 72 71 73 75 74 71 69 69
44 44 39 38 40 39 40 40 40 41 43 46 47 49 48 50 51 49 49 48 49 48 51 50 52 57 59 61 62 63 63 63 62 62 62 65 65 65 66 68 67 67 68 67 68 70 71 71 72 73 74 74 73 72 74 74 75 73 72 72 75 74 74 74 74 76 76 76 76 76 74 75 75 74 76 76 74 75 75 74 75 74 75 76 74 74 73 73 72 72 73 75 71 70 69 69 70
44 43 41 40 41 40 39 40 40 41 44 46 47 48 48 50 52 49 50 47 44 46 50 51 54 56 58 59 62 62 62 63 62 61 61 63 65 67 65 67 68 67 68 68 67 69 70 70 70 71 72 73 73 72 72 74 76 74 73 73 74 75 74 74 73 74 74 75 74 73 73 74 75 74 75 75 74 74 73 72 73 74 75 75 75 74 71 72 71 70 71 72 70 70 70 71 71
41 42 42 42 41 40 39 40 40 42 44 46 48 47 51 49 50 49 48 46 44 45 50 51 55 56 58 59 61 61 61 62 62 62 62 62 65 65 65 66 66 67 69 68 68 69 69 70 71 71 71 73 73 73 72 74 74 73 74 74 74 73 73 74 71 71 73 74 74 74 72 71 72 71 72 73 73 73 73 72 72 73 74 73 74 71 72 72 71 71 71 73 71 70 71 72 72
42 38 39 42 41 41 38 38 39 42 44 44 47 47 51 49 47 48 48 47 48 48 50 53 56 57 58 59 60 61 61 62 61 61 61 62 62 63 64 65 66 68 69 69 68 68 69 68 71 71 71 72 73 73 72 71 72 72 73 74 74 73 73 73 71 70 73 73 75 74 73 72 70 70 71 71 72 73 72 74 74 72 71 72 73 71 70 70 71 72 73 73 72 72 70 71 70
40 39 39 38 39 39 37 38 39 43 44 45 47 47 50 49 46 49 47 48 52 49 53 56 56 57 57 60 60 61 62 62 61 62 62 64 63 63 64 65 66 67 68 69 69 68 69 69 70 70 71 73 71 71 71 71 72 72 72 73 72 74 74 73 71 73 73 72 73 75 75 72 71 71 72 72 72 72 73 74 72 71 73 73 73 70 71 71 71 71 72 72 72 72 72 71 71
37 38 38 37 36 34 33 37 40 42 44 46 46 48 49 48 49 47 46 49 53 53 56 58 58 57 57 58 60 62 63 63 63 63 63 63 64 64 65 66 66 66 67 68 69 70 69 69 69 69 70 71 70 69 71 72 72 72 73 74 74 74 73 73 74 72 72 72 72 75 75 74 73 71 73 72 72 74 74 75 75 73 73 73 72 72 71 70 70 71 72 72 72 72 72 72 70
34 35 36 33 30 31 32 36 39 42 43 47 47 47 48 49 50 46 47 51 55 55 57 58 58 58 56 58 60 62 63 62 62 63 64 64 64 64 64 64 64 65 67 68 68 69 70 69 68 70 71 72 71 70 71 72 73 73 74 74 74 74 73 75 74 73 72 71 72 76 77 77 75 74 73 74 74 74 75 75 74 73 72 71 73 72 73 72 71 72 73 72 72 73 72 70 68
28 28 29 30 32 32 36 37 40 43 45 49 46 45 50 53 50 45 48 53 55 56 57 58 58 59 58 59 61 64 64 64 64 64 64 65 64 64 65 65 65 66 66 68 69 70 69 69 69 70 71 73 73 71 72 72 73 73 75 74 73 74 75 74 73 73 73 73 74 76 77 76 76 75 76 77 76 75 75 73 72 74 74 73 73 72 72 73 72 73 74 75 74 73 71 68 69
26 29 30 35 35 34 38 37 41 46 47 49 46 51 50 51 47 46 51 55 54 56 57 58 58 59 60 61 61 64 64 65 65 64 64 65 65 65 65 66 66 66 67 68 69 69 68 70 70 71 71 73 73 71 71 72 72 73 74 74 74 75 75 75 73 73 74 75 76 77 77 77 78 77 76 77 76 75 74 75 72 72 74 75 74 75 73 73 73 73 73 74 73 72 68 67 68
25 29 32 35 35 34 38 39 45 45 49 48 49 43 42 47 47 47 54 54 54 56 58 57 58 59 59 61 62 65 64 65 64 65 65 64 65 66 66 66 66 67 67 68 69 69 68 69 69 70 71 72 73 72 72 71 72 72 73 73 74 75 74 73 73 73 74 74 76 77 77 77 77 76 77 77 77 75 75 74 74 73 75 75 75 75 73 73 71 72 71 71 69 69 67 68 65
25 27 33 32 31 32 40 42 44 43 49 50 47 40 36 40 46 51 56 54 54 55 56 57 57 59 61 61 62 64 65 66 65 65 65 65 66 66 67 68 68 68 68 68 70 71 71 69 70 69 71 72 73 73 72 72 72 72 72 73 73 75 75 73 72 73 72 74 74 75 76 76 77 77 77 77 75 74 73 72 74 74 73 75 72 74 73 71 71 71 69 70 70 68 67 68 68
26 31 31 29 28 31 43 44 44 42 49 50 46 42 37 38 46 53 55 54 54 54 55 56 58 58 61 62 63 63 64 66 66 65 64 65 67 67 68 68 68 68 69 70 70 71 71 71 72 70 71 72 73 74 73 73 72 73 73 73 74 76 74 74 73 72 73 73 73 74 77 77 77 79 79 79 76 75 72 72 74 75 74 75 74 74 73 70 70 70 70 69 67 67 68 68 67
30 31 30 26 28 34 43 45 45 46 49 48 45 40 39 40 46 53 54 53 53 53 54 56 57 58 60 62 62 63 64 65 66 65 67 67 67 67 66 67 67 68 69 70 71 72 72 72 73 71 69 72 73 73 74 74 74 74 74 75 75 75 75 74 74 74 74 74 74 72 75 78 79 80 80 80 78 77 73 75 75 75 76 74 75 74 71 70 69 67 69 69 69 68 67 67 67
29 30 28 27 27 31 34 46 46 46 47 46 46 42 41 45 50 53 53 53 53 52 53 56 57 59 61 63 62 62 64 65 65 66 66 67 66 66 65 67 67 68 69 70 71 72 72 71 72 73 71 69 72 73 74 74 75 75 76 75 76 75 75 74 74 75 75 74 74 74 76 78 79 79 80 79 78 77 74 75 75 75 75 75 74 73 71 69 69 68 68 70 69 69 67 66 66
26 30 29 26 30 28 31 42 45 45 47 44 45 44 40 48 51 53 53 53 53 53 53 55 57 58 60 61 62 63 64 65 65 67 66 67 66 67 66 66 67 68 68 70 71 72 72 71 71 73 72 71 71 74 76 76 76 77 76 76 76 77 77 75 74 74 74 75 74 76 79 78 78 79 79 79 78 76 76 75 74 75 75 75 75 72 70 69 68 68 69 69 70 69 67 67 67
26 29 27 26 25 29 31 38 44 47 46 43 42 43 41 47 53 54 54 54 54 54 54 55 57 58 60 61 61 61 64 64 65 66 65 66 66 67 66 67 67 68 69 70 72 72 73 72 72 72 74 72 73 75 76 74 75 75 74 75 75 76 76 76 77 75 75 75 76 77 79 78 78 78 78 78 77 77 75 75 74 76 75 74 73 71 67 66 68 69 69 69 69 69 68 68 67
27 28 28 25 23 26 31 36 45 46 44 41 40 42 41 42 49 55 55 55 55 55 55 56 57 58 59 60 61 61 63 62 64 65 66 67 66 68 68 68 68 69 70 71 72 72 73 72 72 72 73 74 73 74 75 73 72 74 75 74 74 75 76 76 76 76 75 75 77 78 79 78 78 78 77 78 77 76 76 75 75 75 75 74 74 68 68 68 69 69 68 69 67 66 66 67 67
28 27 27 26 26 23 32 39 46 46 41 40 42 41 43 44 46 53 56 55 54 53 55 57 57 58 60 62 62 62 62 63 63 65 65 66 66 67 68 68 70 69 71 71 72 72 73 72 72 72 73 74 74 74 75 73 74 73 74 73 72 73 74 73 74 75 75 75 77 78 78 78 78 78 78 77 77 76 75 75 76 75 74 72 70 70 70 68 68 68 68 67 68 65 66 66 65
26 26 27 26 25 27 36 40 45 46 42 37 42 42 42 45 45 49 54 55 55 55 55 56 59 59 61 61 62 63 62 63 63 64 65 65 65 66 68 69 69 69 70 71 72 72 73 72 72 74 73 74 75 75 74 75 75 76 75 74 74 72 74 74 74 73 74 73 75 77 78 77 78 78 77 77 77 76 75 75 75 74 72 70 70 70 69 68 68 68 68 67 64 66 66 66 67
23 24 26 25 26 28 34 40 43 46 41 36 41 41 42 43 45 47 52 54 55 56 55 55 58 60 61 61 62 63 62 63 63 65 64 64 65 66 68 69 69 69 70 71 71 72 72 73 74 74 74 74 74 75 75 76 76 76 77 76 75 74 73 74 75 76 76 76 75 76 77 77 77 76 77 77 77 76 75 75 73 71 71 71 70 69 69 68 68 68 68 68 67 65 61 63 66
21 23 24 24 25 30 31 35 41 45 42 40 41 43 41 42 41 47 51 52 52 55 56 57 59 59 61 61 62 63 62 64 64 65 65 65 65 65 67 69 68 69 69 70 70 71 72 73 74 75 75 75 75 75 76 77 78 77 78 78 75 75 75 75 75 73 73 75 75 76 76 77 76 75 75 76 74 74 74 72 71 71 70 70 70 68 68 66 68 68 68 68 68 64 61 62 64
20 24 25 25 23 30 32 34 39 41 42 42 38 38 37 39 39 42 48 50 53 55 58 58 60 60 61 61 62 62 62 64 65 65 64 63 64 65 67 69 69 68 69 70 70 70 72 73 75 76 75 75 75 76 77 78 78 77 76 75 72 71 71 71 70 70 70 71 69 69 74 73 73 74 73 73 73 73 73 72 72 70 70 70 69 67 67 68 69 70 70 68 66 68 66 63 62
20 22 24 25 25 27 31 30 37 36 36 38 40 38 36 36 34 37 47 50 54 56 58 58 60 62 61 61 61 61 61 62 65 64 63 61 63 64 65 68 68 67 69 70 71 71 72 73 75 76 76 75 75 76 78 78 78 77 77 75 73 71 70 70 72 70 70 70 71 72 72 73 74 73 73 73 74 73 72 72 72 71 69 68 69 68 67 67 68 69 68 67 67 67 66 64 62
18 22 25 26 25 27 27 33 34 33 34 33 36 38 35 33 34 41 44 50 55 56 58 59 58 62 60 61 59 61 61 62 64 65 64 63 63 63 65 67 68 66 68 70 71 71 73 75 75 76 76 75 75 76 76 77 77 76 76 75 74 72 70 70 72 72 73 73 72 73 72 72 74 74 73 74 73 72 72 73 73 71 68 66 67 66 67 68 69 69 69 68 68 67 67 65 63
18 22 23 25 26 28 26 30 31 31 31 34 39 37 36 35 39 49 48 49 53 54 56 58 59 60 61 60 59 60 61 62 63 64 64 64 63 64 65 66 67 67 67 69 70 72 73 75 76 76 76 76 76 77 76 76 76 75 75 74 74 73 72 71 70 72 72 74 73 72 73 72 74 75 74 73 73 72 72 72 71 69 67 66 68 67 67 66 67 68 68 68 67 67 66 65 65
18 24 25 25 25 25 26 26 28 30 33 32 34 32 34 34 35 42 48 49 50 52 53 54 58 59 60 60 59 59 61 63 62 63 64 65 65 65 65 65 67 67 67 70 71 72 73 75 76 77 76 76 76 77 77 77 77 76 75 75 74 73 73 72 71 70 73 74 73 73 73 74 73 73 74 74 73 72 72 70 68 66 65 63 65 65 65 66 66 67 67 66 66 66 66 65 65
19 23 24 24 25 26 28 28 31 31 29 33 31 30 33 29 32 33 48 49 45 39 43 52 56 59 59 60 59 59 60 61 62 63 63 65 66 66 66 66 68 68 68 69 71 72 73 75 76 77 77 76 77 77 78 77 77 76 75 75 75 74 73 73 72 72 73 73 73 73 73 73 73 72 71 73 72 71 71 69 66 64 64 65 67 66 65 62 62 63 65 66 65 64 65 65 64
18 21 22 24 29 30 33 31 34 30 29 35 32 26 32 31 30 31 37 44 38 34 34 39 53 57 59 60 59 59 60 61 62 62 62 64 66 66 66 67 68 69 69 69 70 72 73 74 76 77 78 77 77 77 77 76 76 76 76 75 75 75 74 73 73 72 73 72 73 72 73 73 73 72 72 70 70 67 69 68 66 65 66 66 67 66 63 62 61 63 64 65 65 64 65 65 65
14 18 24 25 30 30 28 29 29 27 28 31 28 28 29 33 34 31 33 36 37 36 32 32 36 52 59 59 60 60 59 60 62 64 63 63 65 66 66 68 70 71 71 71 71 70 72 74 76 76 77 78 77 77 77 77 76 76 75 75 76 76 74 73 73 73 73 73 73 72 73 72 72 72 71 69 68 67 68 68 67 65 67 67 67 65 63 64 64 62 65 63 63 64 63 64 64
12 17 22 26 25 27 27 27 31 30 29 26 27 30 29 33 34 36 32 34 35 33 35 36 38 38 56 59 61 59 60 60 62 63 63 64 65 65 67 68 70 71 71 71 72 71 72 73 75 76 77 78 78 78 77 77 77 77 76 76 76 76 75 74 73 73 73 73 73 73 72 70 70 70 69 69 68 68 68 68 68 67 68 68 66 65 64 64 65 64 64 64 63 64 64 64 63
12 16 17 24 28 27 28 26 27 26 26 25 29 31 33 28 31 31 33 36 35 31 32 38 44 50 52 57 59 59 61 61 63 63 63 63 65 67 67 68 70 71 71 70 72 72 73 74 75 76 76 78 79 78 78 77 77 77 77 76 75 76 74 73 73 73 73 73 72 72 73 71 71 71 69 70 70 69 68 68 68 67 67 67 66 65 63 64 65 65 65 65 65 64 65 65 64
16 15 17 21 24 28 23 25 24 25 24 26 32 32 31 29 41 43 42 36 36 34 36 40 46 51 52 53 57 57 59 60 61 62 63 65 66 67 67 68 69 70 72 70 72 73 73 74 75 76 76 77 78 79 78 78 78 77 77 77 76 76 76 74 74 74 74 73 74 73 73 73 72 71 70 70 69 69 69 67 67 66 67 66 66 65 65 63 64 63 65 66 65 65 65 66 65
17 14 17 19 22 23 25 29 26 27 26 25 31 35 33 30 33 34 36 35 35 37 36 36 41 47 54 54 56 57 57 60 61 62 63 66 66 68 67 68 67 68 69 70 73 74 74 74 75 76 77 77 78 78 78 78 78 77 77 77 76 76 76 75 73 74 73 74 74 73 72 72 72 71 70 71 70 70 69 67 66 65 66 66 66 66 64 64 64 64 64 65 65 62 65 66 64
17 16 15 19 22 21 28 23 29 27 23 24 22 30 30 28 26 32 28 26 25 29 32 27 34 46 50 52 56 58 58 59 62 64 65 66 66 67 66 65 66 68 68 71 73 74 74 74 75 76 77 76 77 78 77 77 78 77 77 77 77 77 76 75 74 74 74 73 73 74 73 72 72 71 70 70 70 69 68 67 67 66 66 66 65 65 65 64 64 64 64 64 64 65 64 65 65
14 17 19 16 22 25 28 28 23 24 24 25 24 26 28 28 29 28 31 32 29 31 32 30 31 43 48 51 53 56 58 58 61 62 64 65 66 66 67 65 65 67 71 71 72 73 73 74 74 73 75 76 76 75 77 77 77 77 77 77 77 76 76 75 74 75 74 73 72 73 72 72 72 72 71 71 69 68 67 67 67 67 66 66 66 64 65 65 64 64 63 62 63 64 64 63 65
12 15 18 20 23 25 26 29 29 28 24 25 22 23 25 33 28 27 30 32 33 29 30 28 28 36 49 51 51 55 58 59 59 61 63 65 64 64 64 64 63 66 69 69 69 70 70 72 74 74 74 76 76 76 77 77 77 76 77 77 77 77 77 76 76 76 75 73 74 74 73 71 73 72 71 71 69 67 66 66 66 65 65 65 65 64 64 65 65 65 63 61 61 63 63 64 63
12 8 14 17 19 22 24 24 25 27 26 23 24 20 26 32 29 26 30 32 34 31 31 33 30 31 35 50 51 54 58 58 59 61 62 64 64 63 63 64 64 65 68 68 67 68 68 68 70 71 73 73 74 75 76 77 76 77 77 77 76 77 76 77 76 76 76 75 75 74 73 73 73 71 71 70 69 67 67 67 66 66 65 66 66 65 64 65 65 64 64 64 64 63 63 63 64
9 8 15 15 19 22 21 23 23 25 24 26 22 22 30 30 29 32 30 31 29 30 32 31 30 27 37 47 52 54 57 60 61 60 60 60 64 64 63 64 65 64 66 66 66 66 66 66 66 69 68 70 70 73 76 77 77 76 77 77 76 75 76 76 76 76 75 75 74 74 74 74 73 72 71 69 69 68 69 68 66 66 67 66 66 66 63 64 63 62 63 63 63 64 64 63 63